Location: Bishopstone
(51.0167°N, 1.9000°W)
Time: 05:33:52
(UTC+00:00)

Cosmos 1441 Rocket - Pass Details

Date: 16 September 2019
Orbit: 497 x 541 km, 81.1° (Epoch: 23 October)

Event Time Altitude Azimuth Distance (km) Brightness Sun altitude
Rises 20:08:31 0° 205° (SSW) 2,633 6.8 -17.1°
Reaches altitude 10° 20:10:43 10° 211° (SSW) 1,742 5.9 -17.4°
Maximum altitude 20:14:25 49° 286° (WNW) 673 4.2 -18.0°
Drops below altitude 10° 20:18:08 10° 3° (N) 1,733 6.2 -18.5°
Sets 20:20:18 0° 9° (N) 2,617 7.1 -18.8°
